Tracking 31027 objects as of 19-Jul-2025
HD Live streaming from Space Station
objects crossing your sky now

AAC-HSI-SAT1

Track AAC-HSI-SAT1 now!
10-day predictions


NORAD ID: 56225
Int'l Code: 2023-054AZ
Perigee: 534.9 km
Apogee: 548.6 km
Inclination: 97.4 °
Period: 95.3 minutes
Semi major axis: 6912 km
RCS: Unknown
Launch date: April 15, 2023
Source: United Kingdom (UK)
Launch site: AIR FORCE WESTERN TEST RANGE (AFWTR)
Your satellite tracking list
STARLINK-6351
Track 1 satellite(s)




NASA's NSSDC Master Catalog

Two Line Element Set (TLE):
1 56225U 23054AZ  25199.59730062  .00001523  00000-0  96116-4 0  9990
2 56225  97.4149  81.9273 0009884 187.7094 172.3985 15.10524155124978
Source of the keplerian elements: AFSPC